Time,TemperatureF,DewpointF,PressureIn,WindDirection,WindDirectionDegrees,WindSpeedMPH,WindSpeedGustMPH,Humidity,HourlyPrecipIn,Conditions,Clouds,dailyrainin,SoftwareType,DateUTC
2013-07-17 00:04:00,79.2,71.7,30.29,SSE,158,0.0,0.0,78,0.00,,,0.00,WUHU216HW,2013-07-17 05:04:00,
2013-07-17 00:09:00,78.8,71.4,30.29,SSE,158,0.0,0.0,78,0.00,,,0.00,WUHU216HW,2013-07-17 05:09:00,
2013-07-17 00:14:00,78.7,71.7,30.29,SSE,158,0.0,0.0,79,0.00,,,0.00,WUHU216HW,2013-07-17 05:14:00,
2013-07-17 00:19:00,78.5,71.5,30.29,SSE,158,0.0,0.0,79,0.00,,,0.00,WUHU216HW,2013-07-17 05:19:00,
2013-07-17 00:24:00,78.3,71.3,30.29,SSE,158,0.0,0.0,79,0.00,,,0.00,WUHU216HW,2013-07-17 05:24:00,
2013-07-17 00:29:00,78.1,71.5,30.29,SSE,158,0.0,0.0,80,0.00,,,0.00,WUHU216HW,2013-07-17 05:29:00,
2013-07-17 00:34:00,77.9,71.3,30.29,SSE,158,0.0,0.0,80,0.00,,,0.00,WUHU216HW,2013-07-17 05:34:00,
2013-07-17 00:39:00,77.8,71.1,30.29,SSE,158,0.0,0.0,80,0.00,,,0.00,WUHU216HW,2013-07-17 05:39:00,
2013-07-17 00:44:00,77.6,71.3,30.29,SSE,158,0.0,0.0,81,0.00,,,0.00,WUHU216HW,2013-07-17 05:44:00,
2013-07-17 00:49:00,77.4,71.1,30.29,SSE,158,0.0,0.0,81,0.00,,,0.00,WUHU216HW,2013-07-17 05:49:00,
2013-07-17 00:54:00,77.2,70.9,30.29,SSE,158,0.0,0.0,81,0.00,,,0.00,WUHU216HW,2013-07-17 05:54:00,
2013-07-17 00:59:00,77.0,70.7,30.29,SSE,158,0.0,0.0,81,0.00,,,0.00,WUHU216HW,2013-07-17 05:59:00,
2013-07-17 01:04:00,77.0,70.7,30.29,SSE,158,0.0,0.0,81,0.00,,,0.00,WUHU216HW,2013-07-17 06:04:00,
2013-07-17 01:09:00,76.9,70.9,30.29,SSE,158,0.0,0.0,82,0.00,,,0.00,WUHU216HW,2013-07-17 06:09:00,
2013-07-17 01:14:00,76.7,70.7,30.29,SSE,158,0.0,0.0,82,0.00,,,0.00,WUHU216HW,2013-07-17 06:14:00,
2013-07-17 01:19:00,76.5,70.6,30.29,SSE,158,0.0,0.0,82,0.00,,,0.00,WUHU216HW,2013-07-17 06:19:00,
2013-07-17 01:24:00,76.3,70.5,30.29,SSE,158,0.0,0.0,82,0.00,,,0.00,WUHU216HW,2013-07-17 06:24:00,
2013-07-17 01:29:00,76.3,70.8,30.29,SSE,158,0.0,0.0,83,0.00,,,0.00,WUHU216HW,2013-07-17 06:29:00,
2013-07-17 01:34:00,76.3,70.8,30.29,SSE,158,0.0,0.5,83,0.00,,,0.00,WUHU216HW,2013-07-17 06:34:00,
2013-07-17 01:39:00,76.1,70.7,30.29,SSE,158,0.0,0.5,83,0.00,,,0.00,WUHU216HW,2013-07-17 06:39:00,
2013-07-17 01:44:00,76.3,70.8,30.29,SSE,158,0.4,0.8,83,0.00,,,0.00,WUHU216HW,2013-07-17 06:44:00,
2013-07-17 01:49:00,76.1,70.7,30.29,SSE,158,0.0,0.8,83,0.00,,,0.00,WUHU216HW,2013-07-17 06:49:00,
2013-07-17 01:54:00,76.1,70.7,30.29,SSE,158,0.0,0.0,83,0.00,,,0.00,WUHU216HW,2013-07-17 06:54:00,
2013-07-17 01:59:00,76.1,70.7,30.29,SSE,158,0.0,0.0,83,0.00,,,0.00,WUHU216HW,2013-07-17 06:59:00,
2013-07-17 02:04:00,76.0,70.5,30.29,SSE,158,0.0,0.0,83,0.00,,,0.00,WUHU216HW,2013-07-17 07:04:00,
2013-07-17 02:09:00,76.0,70.5,30.29,SSE,158,0.0,0.0,83,0.00,,,0.00,WUHU216HW,2013-07-17 07:09:00,
2013-07-17 02:14:00,75.8,70.3,30.29,SSE,158,0.0,0.0,83,0.00,,,0.00,WUHU216HW,2013-07-17 07:14:00,
2013-07-17 02:19:00,75.6,70.1,30.29,SSE,158,0.0,0.0,83,0.00,,,0.00,WUHU216HW,2013-07-17 07:19:00,
2013-07-17 02:24:00,75.6,70.5,30.29,SSE,158,0.0,0.0,84,0.00,,,0.00,WUHU216HW,2013-07-17 07:24:00,
2013-07-17 02:29:00,75.4,70.3,30.29,SSE,158,0.0,0.0,84,0.00,,,0.00,WUHU216HW,2013-07-17 07:29:00,
2013-07-17 02:34:00,75.2,70.1,30.29,SSE,158,0.0,0.0,84,0.00,,,0.00,WUHU216HW,2013-07-17 07:34:00,
2013-07-17 02:39:00,75.2,70.1,30.29,SSE,158,0.0,0.0,84,0.00,,,0.00,WUHU216HW,2013-07-17 07:39:00,
2013-07-17 02:44:00,75.1,69.9,30.29,SSE,158,0.0,1.3,84,0.00,,,0.00,WUHU216HW,2013-07-17 07:44:00,
2013-07-17 02:49:00,75.1,70.3,30.29,SSE,158,0.0,1.3,85,0.00,,,0.00,WUHU216HW,2013-07-17 07:49:00,
2013-07-17 02:54:00,75.1,70.3,30.30,SSE,158,0.0,0.5,85,0.00,,,0.00,WUHU216HW,2013-07-17 07:54:00,
2013-07-17 02:59:00,74.9,70.1,30.30,SSE,158,0.0,0.0,85,0.00,,,0.00,WUHU216HW,2013-07-17 07:59:00,
2013-07-17 03:04:00,74.9,70.1,30.30,SSE,158,0.0,0.0,85,0.00,,,0.00,WUHU216HW,2013-07-17 08:04:00,
2013-07-17 03:09:00,74.9,70.1,30.30,SSE,158,0.4,1.1,85,0.00,,,0.00,WUHU216HW,2013-07-17 08:09:00,
2013-07-17 03:14:00,75.1,70.3,30.30,SSE,158,0.0,1.1,85,0.00,,,0.00,WUHU216HW,2013-07-17 08:14:00,
2013-07-17 03:19:00,75.1,70.3,30.30,SSE,158,0.0,0.2,85,0.00,,,0.00,WUHU216HW,2013-07-17 08:19:00,
2013-07-17 03:24:00,75.1,70.3,30.30,SSE,158,0.0,0.0,85,0.00,,,0.00,WUHU216HW,2013-07-17 08:24:00,
2013-07-17 03:29:00,75.1,70.3,30.30,SSE,158,0.0,0.0,85,0.00,,,0.00,WUHU216HW,2013-07-17 08:29:00,
2013-07-17 03:34:00,74.9,70.1,30.30,SSE,158,0.0,0.0,85,0.00,,,0.00,WUHU216HW,2013-07-17 08:34:00,
2013-07-17 03:39:00,74.7,69.9,30.30,SSE,158,0.0,0.0,85,0.00,,,0.00,WUHU216HW,2013-07-17 08:39:00,
2013-07-17 03:44:00,74.5,69.8,30.30,SSE,158,0.0,0.0,85,0.00,,,0.00,WUHU216HW,2013-07-17 08:44:00,
2013-07-17 03:49:00,74.3,69.6,30.30,SSE,158,0.0,0.0,85,0.00,,,0.00,WUHU216HW,2013-07-17 08:49:00,
2013-07-17 03:54:00,74.3,69.9,30.30,SSE,158,0.0,0.0,86,0.00,,,0.00,WUHU216HW,2013-07-17 08:54:00,
2013-07-17 03:59:00,74.2,69.8,30.30,SSE,158,0.0,0.0,86,0.00,,,0.00,WUHU216HW,2013-07-17 08:59:00,
2013-07-17 04:04:00,74.2,69.8,30.30,SSE,158,0.0,0.0,86,0.00,,,0.00,WUHU216HW,2013-07-17 09:04:00,
2013-07-17 04:09:00,74.2,69.8,30.30,SSE,158,0.0,0.0,86,0.00,,,0.00,WUHU216HW,2013-07-17 09:09:00,
2013-07-17 04:14:00,74.2,69.8,30.30,SSE,158,0.0,0.0,86,0.00,,,0.00,WUHU216HW,2013-07-17 09:14:00,
2013-07-17 04:19:00,74.2,69.8,30.30,SSE,158,0.0,0.0,86,0.00,,,0.00,WUHU216HW,2013-07-17 09:19:00,
2013-07-17 04:24:00,74.2,70.1,30.30,SSE,158,0.0,0.0,87,0.00,,,0.00,WUHU216HW,2013-07-17 09:24:00,
2013-07-17 04:29:00,74.2,69.8,30.30,SSE,158,0.0,0.0,86,0.00,,,0.00,WUHU216HW,2013-07-17 09:29:00,
2013-07-17 04:34:00,74.0,69.6,30.30,SSE,158,0.0,0.0,86,0.00,,,0.00,WUHU216HW,2013-07-17 09:34:00,
2013-07-17 04:39:00,73.8,69.4,30.30,SSE,158,0.0,0.0,86,0.00,,,0.00,WUHU216HW,2013-07-17 09:39:00,
2013-07-17 04:44:00,73.8,69.8,30.30,SSE,158,0.0,0.0,87,0.00,,,0.00,WUHU216HW,2013-07-17 09:44:00,
2013-07-17 04:49:00,73.8,69.8,30.30,SSE,158,0.0,0.0,87,0.00,,,0.00,WUHU216HW,2013-07-17 09:49:00,
2013-07-17 04:54:00,73.8,69.8,30.30,SSE,158,0.0,0.0,87,0.00,,,0.00,WUHU216HW,2013-07-17 09:54:00,
2013-07-17 04:59:00,73.8,69.8,30.30,SSE,158,0.5,0.5,87,0.00,,,0.00,WUHU216HW,2013-07-17 09:59:00,
2013-07-17 05:04:00,73.8,69.8,30.31,SSE,158,0.0,0.5,87,0.00,,,0.00,WUHU216HW,2013-07-17 10:04:00,
2013-07-17 05:09:00,73.6,69.6,30.31,SSE,158,0.5,0.8,87,0.00,,,0.00,WUHU216HW,2013-07-17 10:09:00,
2013-07-17 05:14:00,73.6,69.6,30.31,SSE,158,0.0,0.8,87,0.00,,,0.00,WUHU216HW,2013-07-17 10:14:00,
2013-07-17 05:19:00,73.4,69.4,30.31,SSE,158,0.0,0.0,87,0.00,,,0.00,WUHU216HW,2013-07-17 10:19:00,
2013-07-17 05:24:00,73.4,69.4,30.31,SSE,158,0.0,0.0,87,0.00,,,0.00,WUHU216HW,2013-07-17 10:24:00,
2013-07-17 05:29:00,73.4,69.4,30.31,SSE,158,0.0,0.0,87,0.00,,,0.00,WUHU216HW,2013-07-17 10:29:00,
2013-07-17 05:34:00,73.3,69.5,30.31,SSE,158,0.0,0.0,88,0.00,,,0.00,WUHU216HW,2013-07-17 10:34:00,
2013-07-17 05:39:00,73.1,69.3,30.31,SSE,158,0.0,0.0,88,0.00,,,0.00,WUHU216HW,2013-07-17 10:39:00,
2013-07-17 05:44:00,73.1,69.3,30.31,SSE,158,0.0,0.0,88,0.00,,,0.00,WUHU216HW,2013-07-17 10:44:00,
2013-07-17 05:49:00,73.1,69.3,30.32,SSE,158,0.0,0.0,88,0.00,,,0.00,WUHU216HW,2013-07-17 10:49:00,
2013-07-17 05:54:00,73.1,69.3,30.31,SSE,158,0.0,0.0,88,0.00,,,0.00,WUHU216HW,2013-07-17 10:54:00,
2013-07-17 05:59:00,73.1,69.0,30.32,SSE,158,0.0,0.0,87,0.00,,,0.00,WUHU216HW,2013-07-17 10:59:00,
2013-07-17 06:04:00,73.1,69.0,30.32,SSE,158,0.2,0.2,87,0.00,,,0.00,WUHU216HW,2013-07-17 11:04:00,
2013-07-17 06:09:00,73.1,69.7,30.32,SSE,158,0.0,0.2,89,0.00,,,0.00,WUHU216HW,2013-07-17 11:09:00,
2013-07-17 06:14:00,73.1,69.7,30.32,SSE,158,0.2,0.2,89,0.00,,,0.00,WUHU216HW,2013-07-17 11:14:00,
2013-07-17 06:19:00,73.3,69.8,30.32,SSE,158,0.4,0.5,89,0.00,,,0.00,WUHU216HW,2013-07-17 11:19:00,
2013-07-17 06:24:00,73.3,69.8,30.32,SSE,158,0.0,0.5,89,0.00,,,0.00,WUHU216HW,2013-07-17 11:24:00,
2013-07-17 06:29:00,73.4,70.0,30.32,SSE,158,1.1,1.3,89,0.00,,,0.00,WUHU216HW,2013-07-17 11:29:00,
2013-07-17 06:34:00,73.6,70.2,30.32,SSE,158,0.0,1.3,89,0.00,,,0.00,WUHU216HW,2013-07-17 11:34:00,
2013-07-17 06:39:00,73.8,70.4,30.32,SSE,158,0.7,1.3,89,0.00,,,0.00,WUHU216HW,2013-07-17 11:39:00,
2013-07-17 06:44:00,74.0,70.6,30.33,SSE,158,0.6,1.3,89,0.00,,,0.00,WUHU216HW,2013-07-17 11:44:00,
2013-07-17 06:49:00,75.2,72.2,30.33,SSE,158,0.3,0.8,90,0.00,,,0.00,WUHU216HW,2013-07-17 11:49:00,
2013-07-17 06:54:00,78.1,75.1,30.33,SSE,158,0.2,1.3,90,0.00,,,0.00,WUHU216HW,2013-07-17 11:54:00,
2013-07-17 06:59:00,82.1,77.5,30.33,SSE,158,0.7,1.3,86,0.00,,,0.00,WUHU216HW,2013-07-17 11:59:00,
2013-07-17 07:04:00,85.1,78.3,30.33,SSE,158,0.0,0.8,80,0.00,,,0.00,WUHU216HW,2013-07-17 12:04:00,
2013-07-17 07:09:00,85.9,77.4,30.33,SSE,158,0.8,1.1,76,0.00,,,0.00,WUHU216HW,2013-07-17 12:09:00,
2013-07-17 07:14:00,85.3,76.9,30.33,SSE,158,0.0,1.1,76,0.00,,,0.00,WUHU216HW,2013-07-17 12:14:00,
2013-07-17 07:19:00,84.8,76.3,30.33,SSE,158,0.0,0.0,76,0.00,,,0.00,WUHU216HW,2013-07-17 12:19:00,
2013-07-17 07:24:00,84.2,75.8,30.33,SSE,158,0.0,0.0,76,0.00,,,0.00,WUHU216HW,2013-07-17 12:24:00,
2013-07-17 07:29:00,83.9,75.5,30.33,SSE,158,0.0,0.2,76,0.00,,,0.00,WUHU216HW,2013-07-17 12:29:00,
2013-07-17 07:34:00,83.7,75.3,30.33,SSE,158,0.5,0.5,76,0.00,,,0.00,WUHU216HW,2013-07-17 12:34:00,
2013-07-17 07:39:00,83.7,75.3,30.33,SSE,158,0.0,0.5,76,0.00,,,0.00,WUHU216HW,2013-07-17 12:39:00,
2013-07-17 07:44:00,83.7,75.3,30.33,SSE,158,0.3,0.5,76,0.00,,,0.00,WUHU216HW,2013-07-17 12:44:00,
2013-07-17 07:49:00,83.9,75.5,30.33,SSE,158,0.0,0.5,76,0.00,,,0.00,WUHU216HW,2013-07-17 12:49:00,
2013-07-17 07:54:00,83.9,75.5,30.33,SSE,158,0.0,0.0,76,0.00,,,0.00,WUHU216HW,2013-07-17 12:54:00,
2013-07-17 07:59:00,83.9,75.5,30.34,SW,225,0.0,0.0,76,0.00,,,0.00,WUHU216HW,2013-07-17 12:59:00,
2013-07-17 08:04:00,83.9,75.5,30.34,SW,225,0.0,0.5,76,0.00,,,0.00,WUHU216HW,2013-07-17 13:04:00,
2013-07-17 08:09:00,83.9,75.5,30.34,West,264,0.9,1.9,76,0.00,,,0.00,WUHU216HW,2013-07-17 13:09:00,
2013-07-17 08:14:00,83.7,74.9,30.33,West,270,0.5,1.9,75,0.00,,,0.00,WUHU216HW,2013-07-17 13:14:00,
2013-07-17 08:19:00,83.7,75.3,30.33,SW,225,0.5,0.5,76,0.00,,,0.00,WUHU216HW,2013-07-17 13:19:00,
2013-07-17 08:24:00,83.5,74.7,30.33,SW,225,1.1,1.3,75,0.00,,,0.00,WUHU216HW,2013-07-17 13:24:00,
2013-07-17 08:29:00,83.5,74.7,30.33,West,270,1.6,1.9,75,0.00,,,0.00,WUHU216HW,2013-07-17 13:29:00,
2013-07-17 08:34:00,83.5,74.7,30.33,WSW,248,0.4,1.9,75,0.00,,,0.00,WUHU216HW,2013-07-17 13:34:00,
2013-07-17 08:39:00,83.5,74.7,30.33,WSW,248,0.8,1.6,75,0.00,,,0.00,WUHU216HW,2013-07-17 13:39:00,
2013-07-17 08:44:00,83.5,74.7,30.33,WSW,248,0.2,1.1,75,0.00,,,0.00,WUHU216HW,2013-07-17 13:44:00,
2013-07-17 08:49:00,83.5,74.7,30.33,WSW,248,0.0,0.8,75,0.00,,,0.00,WUHU216HW,2013-07-17 13:49:00,
2013-07-17 08:54:00,83.9,75.1,30.33,SW,225,0.4,1.1,75,0.00,,,0.00,WUHU216HW,2013-07-17 13:54:00,
2013-07-17 08:59:00,83.9,75.1,30.34,WSW,248,0.0,1.3,75,0.00,,,0.00,WUHU216HW,2013-07-17 13:59:00,
2013-07-17 09:04:00,83.9,75.5,30.33,SW,225,0.0,1.3,76,0.00,,,0.00,WUHU216HW,2013-07-17 14:04:00,
2013-07-17 09:09:00,83.9,75.5,30.33,SW,225,0.0,0.5,76,0.00,,,0.00,WUHU216HW,2013-07-17 14:09:00,
2013-07-17 09:14:00,84.2,75.8,30.33,SW,225,0.0,0.5,76,0.00,,,0.00,WUHU216HW,2013-07-17 14:14:00,
2013-07-17 09:19:00,84.4,76.0,30.33,SW,225,0.0,0.0,76,0.00,,,0.00,WUHU216HW,2013-07-17 14:19:00,
2013-07-17 09:24:00,84.6,75.8,30.33,SW,225,1.3,1.3,75,0.00,,,0.00,WUHU216HW,2013-07-17 14:24:00,
2013-07-17 09:29:00,84.6,75.8,30.33,SW,225,0.7,1.3,75,0.00,,,0.00,WUHU216HW,2013-07-17 14:29:00,
2013-07-17 09:34:00,84.8,75.6,30.33,WSW,248,0.5,1.3,74,0.00,,,0.00,WUHU216HW,2013-07-17 14:34:00,
2013-07-17 09:39:00,85.0,75.8,30.33,West,265,0.7,1.3,74,0.00,,,0.00,WUHU216HW,2013-07-17 14:39:00,
2013-07-17 09:44:00,85.0,75.3,30.33,WSW,248,0.5,1.3,73,0.00,,,0.00,WUHU216HW,2013-07-17 14:44:00,
2013-07-17 09:49:00,85.0,75.8,30.33,WSW,248,0.8,0.8,74,0.00,,,0.00,WUHU216HW,2013-07-17 14:49:00,
2013-07-17 09:54:00,85.1,76.0,30.33,WSW,248,0.4,1.1,74,0.00,,,0.00,WUHU216HW,2013-07-17 14:54:00,
2013-07-17 09:59:00,85.3,75.7,30.33,WSW,248,0.4,1.1,73,0.00,,,0.00,WUHU216HW,2013-07-17 14:59:00,
2013-07-17 10:04:00,85.3,75.7,30.32,WSW,248,1.0,1.3,73,0.00,,,0.00,WUHU216HW,2013-07-17 15:04:00,
2013-07-17 10:09:00,85.7,76.1,30.32,WSW,248,0.7,1.3,73,0.00,,,0.00,WUHU216HW,2013-07-17 15:09:00,
2013-07-17 10:14:00,85.9,75.9,30.32,WSW,248,0.8,0.8,72,0.00,,,0.00,WUHU216HW,2013-07-17 15:14:00,
2013-07-17 10:19:00,85.7,74.9,30.32,NW,315,0.8,2.2,70,0.00,,,0.00,WUHU216HW,2013-07-17 15:19:00,
2013-07-17 10:24:00,85.3,74.9,30.32,NW,315,0.5,2.2,71,0.00,,,0.00,WUHU216HW,2013-07-17 15:24:00,
2013-07-17 10:29:00,85.5,74.3,30.32,North,359,1.0,2.4,69,0.00,,,0.00,WUHU216HW,2013-07-17 15:29:00,
2013-07-17 10:34:00,85.7,74.4,30.32,NNE,12,3.6,5.6,69,0.00,,,0.00,WUHU216HW,2013-07-17 15:34:00,
2013-07-17 10:39:00,86.2,75.4,30.32,WNW,293,0.0,5.6,70,0.00,,,0.00,WUHU216HW,2013-07-17 15:39:00,
2013-07-17 10:44:00,86.4,75.6,30.32,SE,135,0.7,1.6,70,0.00,,,0.00,WUHU216HW,2013-07-17 15:44:00,
2013-07-17 10:49:00,86.8,75.9,30.32,SE,135,0.4,1.6,70,0.00,,,0.00,WUHU216HW,2013-07-17 15:49:00,
2013-07-17 10:54:00,86.8,75.4,30.31,East,90,0.2,1.1,69,0.00,,,0.00,WUHU216HW,2013-07-17 15:54:00,
2013-07-17 10:59:00,86.6,75.2,30.31,North,0,1.3,1.9,69,0.00,,,0.00,WUHU216HW,2013-07-17 15:59:00,
2013-07-17 11:04:00,86.4,75.1,30.32,North,0,0.0,2.2,69,0.00,,,0.00,WUHU216HW,2013-07-17 16:04:00,
2013-07-17 11:09:00,86.6,75.7,30.31,SW,221,0.4,2.2,70,0.00,,,0.00,WUHU216HW,2013-07-17 16:09:00,
2013-07-17 11:14:00,86.8,75.4,30.31,WSW,248,0.5,1.3,69,0.00,,,0.00,WUHU216HW,2013-07-17 16:14:00,
2013-07-17 11:19:00,86.8,75.4,30.31,WSW,248,0.2,1.3,69,0.00,,,0.00,WUHU216HW,2013-07-17 16:19:00,
2013-07-17 11:24:00,86.8,75.4,30.31,WSW,248,0.0,0.5,69,0.00,,,0.00,WUHU216HW,2013-07-17 16:24:00,
2013-07-17 11:29:00,87.1,75.8,30.31,SSW,192,0.9,1.3,69,0.00,,,0.00,WUHU216HW,2013-07-17 16:29:00,
2013-07-17 11:34:00,87.5,75.6,30.31,SSE,158,0.0,1.3,68,0.00,,,0.00,WUHU216HW,2013-07-17 16:34:00,
2013-07-17 11:39:00,87.5,75.6,30.31,South,180,0.0,0.2,68,0.00,,,0.00,WUHU216HW,2013-07-17 16:39:00,
2013-07-17 11:44:00,87.7,76.2,30.31,South,180,0.0,0.0,69,0.00,,,0.00,WUHU216HW,2013-07-17 16:44:00,
2013-07-17 11:49:00,88.0,76.2,30.31,SSW,203,0.2,0.5,68,0.00,,,0.00,WUHU216HW,2013-07-17 16:49:00,
2013-07-17 11:54:00,88.6,76.2,30.31,SSW,213,0.8,1.1,67,0.00,,,0.00,WUHU216HW,2013-07-17 16:54:00,
2013-07-17 11:59:00,88.9,76.6,30.31,WSW,248,0.0,1.1,67,0.00,,,0.00,WUHU216HW,2013-07-17 16:59:00,
2013-07-17 12:04:00,88.9,76.6,30.31,WSW,248,0.0,0.5,67,0.00,,,0.00,WUHU216HW,2013-07-17 17:04:00,
2013-07-17 12:05:00,88.9,76.6,30.30,WSW,248,0.0,0.5,67,0.00,,,0.00,WUHU216HW,2013-07-17 17:05:00,
2013-07-17 12:10:00,88.6,75.3,30.30,WNW,300,0.7,1.1,65,0.00,,,0.00,WUHU216HW,2013-07-17 17:10:00,
2013-07-17 12:15:00,88.2,75.4,30.30,North,0,1.6,1.6,66,0.00,,,0.00,WUHU216HW,2013-07-17 17:15:00,
2013-07-17 12:20:00,88.2,75.4,30.30,NNE,27,1.8,3.0,66,0.00,,,0.00,WUHU216HW,2013-07-17 17:20:00,
2013-07-17 12:25:00,88.7,75.4,30.30,North,8,0.2,3.0,65,0.00,,,0.00,WUHU216HW,2013-07-17 17:25:00,
2013-07-17 12:30:00,88.6,75.8,30.30,WNW,293,0.0,2.4,66,0.00,,,0.00,WUHU216HW,2013-07-17 17:30:00,
2013-07-17 12:35:00,88.7,76.0,30.30,West,270,0.0,1.1,66,0.00,,,0.00,WUHU216HW,2013-07-17 17:35:00,
2013-07-17 12:40:00,89.1,75.8,30.30,West,270,0.0,0.2,65,0.00,,,0.00,WUHU216HW,2013-07-17 17:40:00,
2013-07-17 12:45:00,89.6,76.3,30.30,SSW,203,1.1,1.3,65,0.00,,,0.00,WUHU216HW,2013-07-17 17:45:00,
2013-07-17 12:50:00,90.2,76.8,30.30,WNW,293,1.3,1.6,65,0.00,,,0.00,WUHU216HW,2013-07-17 17:50:00,
2013-07-17 12:55:00,90.7,77.3,30.29,South,180,0.8,1.6,65,0.00,,,0.00,WUHU216HW,2013-07-17 17:55:00,
2013-07-17 13:00:00,91.4,77.5,30.29,SSW,203,0.7,2.2,64,0.00,,,0.00,WUHU216HW,2013-07-17 18:00:00,
2013-07-17 13:05:00,91.4,77.1,30.29,SE,141,1.7,3.7,63,0.00,,,0.00,WUHU216HW,2013-07-17 18:05:00,
2013-07-17 13:10:00,91.8,77.4,30.29,SSW,203,1.3,3.7,63,0.00,,,0.00,WUHU216HW,2013-07-17 18:10:00,
2013-07-17 13:15:00,92.2,77.2,30.28,South,177,1.4,1.9,62,0.00,,,0.00,WUHU216HW,2013-07-17 18:15:00,
2013-07-17 13:20:00,92.9,77.9,30.28,South,180,2.6,2.6,62,0.00,,,0.00,WUHU216HW,2013-07-17 18:20:00,
2013-07-17 13:25:00,93.2,77.9,30.28,SSW,203,0.6,2.6,61,0.00,,,0.00,WUHU216HW,2013-07-17 18:25:00,
2013-07-17 13:30:00,93.8,77.9,30.28,SE,141,2.3,3.2,60,0.00,,,0.00,WUHU216HW,2013-07-17 18:30:00,
2013-07-17 13:35:00,94.0,78.0,30.28,SSW,203,1.9,3.2,60,0.00,,,0.00,WUHU216HW,2013-07-17 18:35:00,
2013-07-17 13:40:00,94.3,78.4,30.28,SSE,148,2.7,4.1,60,0.00,,,0.00,WUHU216HW,2013-07-17 18:40:00,
2013-07-17 13:45:00,94.0,77.5,30.28,SSE,158,1.6,4.1,59,0.00,,,0.00,WUHU216HW,2013-07-17 18:45:00,
2013-07-17 13:50:00,94.1,77.7,30.28,South,180,1.2,4.1,59,0.00,,,0.00,WUHU216HW,2013-07-17 18:50:00,
2013-07-17 13:55:00,94.5,77.4,30.28,SE,142,1.4,2.2,58,0.00,,,0.00,WUHU216HW,2013-07-17 18:55:00,
2013-07-17 14:00:00,94.3,77.3,30.27,SE,143,2.0,4.1,58,0.00,,,0.00,WUHU216HW,2013-07-17 19:00:00,
2013-07-17 14:05:00,94.3,77.3,30.27,SSE,147,3.4,6.5,58,0.00,,,0.00,WUHU216HW,2013-07-17 19:05:00,
2013-07-17 14:10:00,94.1,77.1,30.27,SSE,148,2.1,6.5,58,0.00,,,0.00,WUHU216HW,2013-07-17 19:10:00,
2013-07-17 14:15:00,94.5,77.4,30.26,SSW,203,2.4,3.5,58,0.00,,,0.00,WUHU216HW,2013-07-17 19:15:00,
2013-07-17 14:20:00,95.0,77.4,30.26,SE,135,0.8,5.6,57,0.00,,,0.00,WUHU216HW,2013-07-17 19:20:00,
2013-07-17 14:25:00,95.0,77.4,30.26,SSW,203,2.2,5.6,57,0.00,,,0.00,WUHU216HW,2013-07-17 19:25:00,
2013-07-17 14:30:00,95.2,77.1,30.26,South,170,1.2,3.5,56,0.00,,,0.00,WUHU216HW,2013-07-17 19:30:00,
2013-07-17 14:35:00,95.4,77.2,30.26,SSW,203,1.7,3.5,56,0.00,,,0.00,WUHU216HW,2013-07-17 19:35:00,
2013-07-17 14:40:00,95.8,77.5,30.25,SW,223,1.1,3.5,56,0.00,,,0.00,WUHU216HW,2013-07-17 19:40:00,
2013-07-17 14:45:00,95.8,77.0,30.25,SW,225,1.3,1.6,55,0.00,,,0.00,WUHU216HW,2013-07-17 19:45:00,
2013-07-17 14:50:00,96.1,77.3,30.25,WSW,241,0.7,2.2,55,0.00,,,0.00,WUHU216HW,2013-07-17 19:50:00,
2013-07-17 14:55:00,96.1,77.3,30.25,SE,144,3.4,6.5,55,0.00,,,0.00,WUHU216HW,2013-07-17 19:55:00,
2013-07-17 15:00:00,96.3,77.5,30.25,SSW,203,1.6,6.5,55,0.00,,,0.00,WUHU216HW,2013-07-17 20:00:00,
2013-07-17 15:05:00,96.5,77.0,30.25,South,180,1.4,2.4,54,0.00,,,0.00,WUHU216HW,2013-07-17 20:05:00,
2013-07-17 15:10:00,95.8,76.4,30.25,WSW,248,0.0,2.4,54,0.00,,,0.00,WUHU216HW,2013-07-17 20:10:00,
2013-07-17 15:15:00,95.0,75.8,30.25,WSW,248,0.0,1.1,54,0.00,,,0.00,WUHU216HW,2013-07-17 20:15:00,
2013-07-17 15:20:00,94.5,75.8,30.25,SSE,158,2.2,3.2,55,0.00,,,0.00,WUHU216HW,2013-07-17 20:20:00,
2013-07-17 15:25:00,94.0,75.9,30.25,SSE,158,2.1,3.2,56,0.00,,,0.00,WUHU216HW,2013-07-17 20:25:00,
2013-07-17 15:30:00,94.0,76.4,30.24,South,180,2.2,4.1,57,0.00,,,0.00,WUHU216HW,2013-07-17 20:30:00,
2013-07-17 15:35:00,94.3,76.1,30.24,SSE,158,2.4,4.1,56,0.00,,,0.00,WUHU216HW,2013-07-17 20:35:00,
2013-07-17 15:40:00,94.5,76.3,30.24,SSE,158,0.5,2.4,56,0.00,,,0.00,WUHU216HW,2013-07-17 20:40:00,
2013-07-17 15:45:00,94.7,76.5,30.24,SE,135,3.7,3.7,56,0.00,,,0.00,WUHU216HW,2013-07-17 20:45:00,
2013-07-17 15:50:00,95.0,76.9,30.24,SSE,158,2.9,5.4,56,0.00,,,0.00,WUHU216HW,2013-07-17 20:50:00,
2013-07-17 15:55:00,94.7,76.5,30.24,SSE,165,2.3,5.4,56,0.00,,,0.00,WUHU216HW,2013-07-17 20:55:00,
2013-07-17 16:00:00,94.0,75.9,30.24,SE,135,3.0,4.1,56,0.00,,,0.00,WUHU216HW,2013-07-17 21:00:00,
2013-07-17 16:05:00,93.2,75.2,30.24,SSE,158,2.2,3.2,56,0.00,,,0.00,WUHU216HW,2013-07-17 21:05:00,
2013-07-17 16:10:00,92.5,75.1,30.23,SSE,158,1.4,3.5,57,0.00,,,0.00,WUHU216HW,2013-07-17 21:10:00,
2013-07-17 16:15:00,92.2,75.3,30.23,SE,138,1.6,3.5,58,0.00,,,0.00,WUHU216HW,2013-07-17 21:15:00,
2013-07-17 16:20:00,92.0,75.1,30.23,SSE,158,1.1,2.4,58,0.00,,,0.00,WUHU216HW,2013-07-17 21:20:00,
2013-07-17 16:25:00,92.0,75.6,30.23,SSE,158,1.1,3.7,59,0.00,,,0.00,WUHU216HW,2013-07-17 21:25:00,
2013-07-17 16:30:00,91.8,75.4,30.23,SSE,158,1.1,3.7,59,0.00,,,0.00,WUHU216HW,2013-07-17 21:30:00,
2013-07-17 16:35:00,91.4,75.1,30.23,SSE,158,0.9,3.0,59,0.00,,,0.00,WUHU216HW,2013-07-17 21:35:00,
2013-07-17 16:40:00,91.1,74.7,30.23,South,180,0.7,1.6,59,0.00,,,0.00,WUHU216HW,2013-07-17 21:40:00,
2013-07-17 16:45:00,90.9,74.6,30.23,South,180,1.3,1.3,59,0.00,,,0.00,WUHU216HW,2013-07-17 21:45:00,
2013-07-17 16:50:00,90.7,75.0,30.23,SSE,158,1.5,2.4,60,0.00,,,0.00,WUHU216HW,2013-07-17 21:50:00,
2013-07-17 16:55:00,90.7,75.4,30.22,SSE,158,1.3,2.4,61,0.00,,,0.00,WUHU216HW,2013-07-17 21:55:00,
2013-07-17 17:00:00,91.1,75.2,30.22,WSW,248,1.3,2.2,60,0.00,,,0.00,WUHU216HW,2013-07-17 22:00:00,
2013-07-17 17:05:00,91.3,75.4,30.22,SSE,159,2.1,3.2,60,0.00,,,0.00,WUHU216HW,2013-07-17 22:05:00,
2013-07-17 17:10:00,91.4,75.6,30.21,SSW,200,1.5,3.2,60,0.00,,,0.00,WUHU216HW,2013-07-17 22:10:00,
2013-07-17 17:15:00,91.4,75.1,30.22,SW,229,1.0,2.2,59,0.00,,,0.00,WUHU216HW,2013-07-17 22:15:00,
2013-07-17 17:20:00,91.3,74.9,30.22,SSE,158,0.5,1.3,59,0.00,,,0.00,WUHU216HW,2013-07-17 22:20:00,
2013-07-17 17:25:00,91.1,75.2,30.22,SSW,203,1.1,1.3,60,0.00,,,0.00,WUHU216HW,2013-07-17 22:25:00,
2013-07-17 17:30:00,90.7,75.0,30.22,SSW,203,0.0,1.3,60,0.00,,,0.00,WUHU216HW,2013-07-17 22:30:00,
2013-07-17 17:35:00,90.5,74.8,30.22,SSW,203,0.8,0.8,60,0.00,,,0.00,WUHU216HW,2013-07-17 22:35:00,
2013-07-17 17:40:00,90.5,74.8,30.21,SSW,203,0.7,1.1,60,0.00,,,0.00,WUHU216HW,2013-07-17 22:40:00,
2013-07-17 17:45:00,90.5,74.8,30.21,South,180,1.3,1.3,60,0.00,,,0.00,WUHU216HW,2013-07-17 22:45:00,
2013-07-17 17:50:00,90.4,74.6,30.21,SSE,158,0.5,1.9,60,0.00,,,0.00,WUHU216HW,2013-07-17 22:50:00,
2013-07-17 17:55:00,90.0,74.8,30.21,SSE,158,0.0,1.9,61,0.00,,,0.00,WUHU216HW,2013-07-17 22:55:00,
2013-07-17 18:00:00,89.8,74.6,30.20,SSE,158,0.0,0.5,61,0.00,,,0.00,WUHU216HW,2013-07-17 23:00:00,
2013-07-17 18:05:00,89.6,74.4,30.20,SSE,158,0.0,0.0,61,0.00,,,0.00,WUHU216HW,2013-07-17 23:05:00,
2013-07-17 18:10:00,89.3,74.2,30.20,SSE,158,0.0,0.0,61,0.00,,,0.00,WUHU216HW,2013-07-17 23:10:00,
2013-07-17 18:15:00,89.1,74.4,30.20,SSE,158,0.0,0.0,62,0.00,,,0.00,WUHU216HW,2013-07-17 23:15:00,
2013-07-17 18:20:00,88.9,74.7,30.20,SSE,158,0.0,0.0,63,0.00,,,0.00,WUHU216HW,2013-07-17 23:20:00,
2013-07-17 18:25:00,88.7,75.0,30.20,SSE,158,0.0,0.0,64,0.00,,,0.00,WUHU216HW,2013-07-17 23:25:00,
2013-07-17 18:30:00,88.6,74.9,30.20,SSE,158,0.3,0.5,64,0.00,,,0.00,WUHU216HW,2013-07-17 23:30:00,
2013-07-17 18:35:00,88.4,75.2,30.20,SSE,158,0.4,0.5,65,0.00,,,0.00,WUHU216HW,2013-07-17 23:35:00,
2013-07-17 18:40:00,88.2,75.4,30.20,SSE,158,0.0,0.5,66,0.00,,,0.00,WUHU216HW,2013-07-17 23:40:00,
2013-07-17 18:45:00,88.0,75.3,30.20,SSE,158,0.0,0.0,66,0.00,,,0.00,WUHU216HW,2013-07-17 23:45:00,
2013-07-17 18:50:00,87.8,75.1,30.20,SSE,158,0.0,0.0,66,0.00,,,0.00,WUHU216HW,2013-07-17 23:50:00,
2013-07-17 18:55:00,87.7,74.9,30.20,SSE,158,0.6,1.1,66,0.00,,,0.00,WUHU216HW,2013-07-17 23:55:00,
2013-07-17 19:00:00,87.7,74.9,30.20,SSE,158,0.0,1.1,66,0.00,,,0.00,WUHU216HW,2013-07-18 00:00:00,
2013-07-17 19:05:00,87.5,74.7,30.20,SSE,158,0.0,0.5,66,0.00,,,0.00,WUHU216HW,2013-07-18 00:05:00,
2013-07-17 19:10:00,87.5,74.7,30.20,SSE,158,0.0,0.0,66,0.00,,,0.00,WUHU216HW,2013-07-18 00:10:00,
2013-07-17 19:15:00,87.3,74.5,30.20,SSE,158,0.0,0.0,66,0.00,,,0.00,WUHU216HW,2013-07-18 00:15:00,
2013-07-17 19:20:00,87.1,74.3,30.19,SSE,158,0.0,0.0,66,0.00,,,0.00,WUHU216HW,2013-07-18 00:20:00,
2013-07-17 19:25:00,86.9,74.7,30.20,SSE,158,0.0,0.0,67,0.00,,,0.00,WUHU216HW,2013-07-18 00:25:00,
2013-07-17 19:30:00,86.8,74.5,30.19,SSE,158,0.0,0.0,67,0.00,,,0.00,WUHU216HW,2013-07-18 00:30:00,
2013-07-17 19:35:00,86.6,74.4,30.19,SSE,158,0.0,0.0,67,0.00,,,0.00,WUHU216HW,2013-07-18 00:35:00,
2013-07-17 19:40:00,86.4,74.2,30.19,SSE,158,0.6,1.3,67,0.00,,,0.00,WUHU216HW,2013-07-18 00:40:00,
2013-07-17 19:45:00,86.4,74.2,30.19,SSE,158,0.0,1.3,67,0.00,,,0.00,WUHU216HW,2013-07-18 00:45:00,
2013-07-17 19:50:00,86.0,73.8,30.19,SSE,158,0.8,1.1,67,0.00,,,0.00,WUHU216HW,2013-07-18 00:50:00,
2013-07-17 19:55:00,85.9,73.6,30.19,SSE,158,0.0,1.1,67,0.00,,,0.00,WUHU216HW,2013-07-18 00:55:00,
2013-07-17 20:00:00,85.7,73.5,30.19,SSE,158,0.0,0.0,67,0.00,,,0.00,WUHU216HW,2013-07-18 01:00:00,
2013-07-17 20:05:00,85.5,73.8,30.19,SSE,158,0.8,1.1,68,0.00,,,0.00,WUHU216HW,2013-07-18 01:05:00,
2013-07-17 20:10:00,85.3,73.6,30.19,SSE,158,0.0,1.1,68,0.00,,,0.00,WUHU216HW,2013-07-18 01:10:00,
2013-07-17 20:15:00,85.3,74.1,30.19,SSE,158,0.0,0.8,69,0.00,,,0.00,WUHU216HW,2013-07-18 01:15:00,
2013-07-17 20:20:00,85.1,73.9,30.19,SSE,158,0.0,0.0,69,0.00,,,0.00,WUHU216HW,2013-07-18 01:20:00,
2013-07-17 20:25:00,85.0,73.7,30.19,SSE,158,0.7,0.8,69,0.00,,,0.00,WUHU216HW,2013-07-18 01:25:00,
2013-07-17 20:30:00,84.8,73.5,30.19,SSE,158,0.2,0.8,69,0.00,,,0.00,WUHU216HW,2013-07-18 01:30:00,
2013-07-17 20:35:00,84.6,73.4,30.19,SSE,158,0.0,0.5,69,0.00,,,0.00,WUHU216HW,2013-07-18 01:35:00,
2013-07-17 20:40:00,84.6,73.4,30.19,SSE,158,0.0,0.0,69,0.00,,,0.00,WUHU216HW,2013-07-18 01:40:00,
2013-07-17 20:45:00,84.4,73.6,30.19,SSE,158,0.0,0.0,70,0.00,,,0.00,WUHU216HW,2013-07-18 01:45:00,
2013-07-17 20:50:00,84.2,73.4,30.19,SSE,158,0.0,0.0,70,0.00,,,0.00,WUHU216HW,2013-07-18 01:50:00,
2013-07-17 20:55:00,83.9,73.4,30.19,SSE,158,0.5,0.8,71,0.00,,,0.00,WUHU216HW,2013-07-18 01:55:00,
2013-07-17 21:00:00,83.7,73.3,30.20,SSE,158,0.0,0.8,71,0.00,,,0.00,WUHU216HW,2013-07-18 02:00:00,
2013-07-17 21:05:00,83.5,73.1,30.19,SSE,158,0.0,0.0,71,0.00,,,0.00,WUHU216HW,2013-07-18 02:05:00,
2013-07-17 21:10:00,83.5,73.5,30.19,SSE,158,0.0,0.0,72,0.00,,,0.00,WUHU216HW,2013-07-18 02:10:00,
2013-07-17 21:15:00,83.3,73.4,30.19,SSE,158,0.0,0.0,72,0.00,,,0.00,WUHU216HW,2013-07-18 02:15:00,
2013-07-17 21:20:00,83.2,72.8,30.19,SSE,158,0.0,0.0,71,0.00,,,0.00,WUHU216HW,2013-07-18 02:20:00,
2013-07-17 21:25:00,83.2,72.8,30.19,SSE,158,0.0,0.0,71,0.00,,,0.00,WUHU216HW,2013-07-18 02:25:00,
2013-07-17 21:30:00,83.2,73.2,30.20,SSE,158,0.0,0.0,72,0.00,,,0.00,WUHU216HW,2013-07-18 02:30:00,
2013-07-17 21:35:00,82.8,72.8,30.20,SSE,158,0.0,0.0,72,0.00,,,0.00,WUHU216HW,2013-07-18 02:35:00,
2013-07-17 21:40:00,82.6,72.6,30.20,SSE,158,0.3,0.5,72,0.00,,,0.00,WUHU216HW,2013-07-18 02:40:00,
2013-07-17 21:45:00,82.4,72.9,30.20,SSE,158,0.0,0.5,73,0.00,,,0.00,WUHU216HW,2013-07-18 02:45:00,
2013-07-17 21:50:00,82.1,72.5,30.20,SSE,158,0.0,0.0,73,0.00,,,0.00,WUHU216HW,2013-07-18 02:50:00,
2013-07-17 21:55:00,81.9,72.4,30.20,SSE,158,0.0,0.0,73,0.00,,,0.00,WUHU216HW,2013-07-18 02:55:00,
2013-07-17 22:00:00,81.7,72.2,30.20,SSE,158,0.0,0.0,73,0.00,,,0.00,WUHU216HW,2013-07-18 03:00:00,
2013-07-17 22:05:00,81.4,72.3,30.20,SSE,158,0.0,0.0,74,0.00,,,0.00,WUHU216HW,2013-07-18 03:05:00,
2013-07-17 22:10:00,81.2,72.1,30.20,SSE,158,0.0,0.0,74,0.00,,,0.00,WUHU216HW,2013-07-18 03:10:00,
2013-07-17 22:15:00,81.0,72.4,30.20,SSE,158,0.0,0.0,75,0.00,,,0.00,WUHU216HW,2013-07-18 03:15:00,
2013-07-17 22:20:00,80.8,72.2,30.20,SSE,158,0.0,0.0,75,0.00,,,0.00,WUHU216HW,2013-07-18 03:20:00,
2013-07-17 22:25:00,80.6,72.0,30.20,SSE,158,0.0,0.0,75,0.00,,,0.00,WUHU216HW,2013-07-18 03:25:00,
2013-07-17 22:30:00,80.6,72.0,30.20,SSE,158,0.0,0.0,75,0.00,,,0.00,WUHU216HW,2013-07-18 03:30:00,
2013-07-17 22:35:00,80.5,71.8,30.20,SSE,158,0.0,0.0,75,0.00,,,0.00,WUHU216HW,2013-07-18 03:35:00,
2013-07-17 22:40:00,80.5,71.8,30.21,SSE,158,0.0,0.0,75,0.00,,,0.00,WUHU216HW,2013-07-18 03:40:00,
2013-07-17 22:45:00,80.1,71.8,30.21,SSE,158,0.0,0.0,76,0.00,,,0.00,WUHU216HW,2013-07-18 03:45:00,
2013-07-17 22:50:00,79.9,71.6,30.21,SSE,158,0.0,0.0,76,0.00,,,0.00,WUHU216HW,2013-07-18 03:50:00,
2013-07-17 22:55:00,79.9,72.1,30.21,SSE,158,0.0,0.0,77,0.00,,,0.00,WUHU216HW,2013-07-18 03:55:00,
2013-07-17 23:00:00,79.7,71.9,30.21,SSE,158,0.0,0.0,77,0.00,,,0.00,WUHU216HW,2013-07-18 04:00:00,
2013-07-17 23:01:00,79.7,71.9,30.21,SSE,158,0.0,0.0,77,0.00,,,0.00,WUHU216HW,2013-07-18 04:01:00,
2013-07-17 23:02:00,79.7,71.9,30.21,SSE,158,0.0,0.0,77,0.00,,,0.00,WUHU216HW,2013-07-18 04:02:00,
2013-07-17 23:07:00,79.6,71.7,30.21,SSE,158,0.0,0.0,77,0.00,,,0.00,WUHU216HW,2013-07-18 04:07:00,
2013-07-17 23:12:00,79.6,71.7,30.21,SSE,158,0.0,0.0,77,0.00,,,0.00,WUHU216HW,2013-07-18 04:12:00,
2013-07-17 23:17:00,79.4,71.9,30.21,SSE,158,0.0,0.0,78,0.00,,,0.00,WUHU216HW,2013-07-18 04:17:00,
2013-07-17 23:22:00,79.4,71.9,30.21,SSE,158,0.0,0.0,78,0.00,,,0.00,WUHU216HW,2013-07-18 04:22:00,
2013-07-17 23:27:00,79.2,71.7,30.21,SSE,158,0.0,0.0,78,0.00,,,0.00,WUHU216HW,2013-07-18 04:27:00,
2013-07-17 23:32:00,79.0,71.6,30.21,SSE,158,0.0,0.0,78,0.00,,,0.00,WUHU216HW,2013-07-18 04:32:00,
2013-07-17 23:37:00,79.0,71.6,30.21,SSE,158,0.0,0.0,78,0.00,,,0.00,WUHU216HW,2013-07-18 04:37:00,
2013-07-17 23:42:00,78.8,71.4,30.21,SSE,158,0.0,0.0,78,0.00,,,0.00,WUHU216HW,2013-07-18 04:42:00,
2013-07-17 23:47:00,78.8,71.8,30.21,SSE,158,0.0,0.0,79,0.00,,,0.00,WUHU216HW,2013-07-18 04:47:00,
2013-07-17 23:52:00,78.7,71.7,30.21,SSE,158,0.0,0.0,79,0.00,,,0.00,WUHU216HW,2013-07-18 04:52:00,
2013-07-17 23:57:00,78.7,71.7,30.21,SSE,158,0.0,0.0,79,0.00,,,0.00,WUHU216HW,2013-07-18 04:57:00,